Terminal Aerodrome Forecast
Issued by NWS Quad Cities IA IL

Home | Current Version | Previous Version | Text Only | Print | Product List | Glossary On
Versions: 1 2 3 4 5 6 7 8 9 10 11 12 13 14 15 16 17 18 19 20 21 22 23 24 25 26 27 28 29 30 31 32 33 34 35 36
100
FTUS43 KDVN 301504 AAC
TAFDBQ
TAF AMD
KDBQ 301504Z 3015/3112 06013G20KT 6SM -RA BR OVC006
     FM301900 01012G18KT 5SM BR VCSH OVC007
     FM310200 35012KT 4SM BR OVC005=

USA.gov is the U.S. government's official web portal to all federal, state and local government web resources and services.